Location: Broletto
(44.6000°N, 10.5833°E)
Time: 06:47:00
(UTC+00:00)

Cosmos 482 Debris - Pass Details

Date: 18 April 2021
Orbit: 199 x 2135 km, 52.0° (Epoch: 06 May)

Event Time Altitude Azimuth Distance (km) Brightness Sun altitude
Rises 18:35:57 0° 249° (WSW) 2,639 8.6 -5.8°
Reaches altitude 10° 18:38:38 10° 255° (WSW) 1,469 7.4 -6.2°
Maximum altitude 18:41:38 46° 331° (NNW) 425 4.2 -6.7°
Drops below altitude 10° 18:43:46 10° 48° (NE) 1,035 5.5 -7.1°
Enters shadow 18:45:14 - 55° (NE) 1,682 6.5 -7.3°
